[[{"header":{"parameterUnit":"m.s-1","parameterCategory":1,"la1":30.2991,"la2":30.254,"lo1":-89.0895,"lo2":-89.0444,"dy":0.0017,"dx":0.0017,"nx":28,"ny":28,"refTime":"2024-06-30T03:00:00:Z","depth":0,"parameterNumber":2,"parameterNumberName":"U-component_of_WINDS"},"data":[0,0,0,0,0,0,0,0,0,0,0,0,0,0,0,0,0,0,0,0,0,0,0,0,0,0,0,0,0,0,0,0,0,0,0,0,0,0,0,0,0,0,0,0,0,0,0,0,0,0,0,0,0,0,0,0,0,0,1.6903,1.6905,0,1.7028,1.7029,1.7031,1.7049,1.7048,1.7047,1.7046,1.7179,1.7184,1.7188,0,0,0,0,0,0,0,0,0,0,0,0,0,1.6686,1.669,1.6903,1.6905,1.6906,1.7028,1.7029,1.7031,1.705,1.7048,1.7047,1.7046,1.7178,1.7183,1.7189,0,0,0,0,0,0,0,0,0,0,0,0,0,1.6793,1.6692,1.6903,1.693,1.6934,1.7027,1.7029,1.7031,1.705,1.7048,1.7047,1.7045,1.7176,1.7183,1.7189,1.7266,0,0,1.7211,1.7214,0,0,0,0,0,0,0,0,1.6787,1.6801,1.6925,1.6928,1.6933,1.7021,1.7002,1.711,1.705,1.7006,1.7046,1.7044,1.7128,1.7139,1.7166,1.7273,1.7278,1.7211,1.7215,1.7218,1.722,0,0,0,0,0,0,0,1.6779,1.6796,1.6953,1.6926,1.6931,1.6938,1.6951,1.7022,1.7076,1.701,1.7011,1.7026,1.713,1.716,1.717,1.728,1.7211,1.7217,1.7221,1.7224,1.7455,1.7457,0,0,0,0,0,0,1.6766,1.6789,1.6949,1.6956,1.6854,1.6943,1.6958,1.6995,1.7075,1.7085,1.7027,1.7026,1.7149,1.7162,1.7174,1.7269,1.7218,1.7225,1.7229,1.7453,1.7456,1.7458,0,0,0,0,0,0,1.6762,1.678,1.6944,1.6873,1.6895,1.6948,1.699,1.6998,1.7027,1.7088,1.7098,1.7047,1.7148,1.7165,1.7243,1.7274,1.7228,1.7234,1.7451,1.7454,1.7457,1.7459,0,0,0,0,0,0,1.6755,1.6779,1.6807,1.6874,1.6898,1.7008,1.6992,1.7002,1.7038,1.7038,1.7109,1.7119,1.7148,1.7232,1.725,1.7282,1.724,1.7448,1.7452,1.7456,1.7456,1.7461,1.7466,0,0,0,0,0,1.6747,1.6804,1.6808,1.6828,1.6935,1.701,1.7024,1.7055,1.7041,1.7071,1.7109,1.7117,1.7268,1.724,1.726,1.7295,1.7447,1.7451,1.7455,1.7454,1.746,1.7466,0,0,0,0,0,0,1.6742,1.6813,1.6819,1.6899,1.6948,1.7013,1.7052,1.7061,1.7116,1.7114,1.7152,1.7167,1.7243,1.7278,1.7246,1.7374,1.7356,1.7365,1.7348,1.7355,1.736,1.735,1.7245,0,0,0,0,0,1.6749,1.6803,1.6863,1.6928,1.6952,1.6997,1.7032,1.705,1.7104,1.7125,1.717,1.7223,1.7282,1.7321,1.7379,1.7461,1.7477,1.7495,1.75,1.7504,1.7511,1.7557,1.7566,1.7473,1.7472,1.7472,0,0,1.6767,1.6812,1.6844,1.6928,1.6968,1.7024,1.7015,1.7075,1.7117,1.7135,1.721,1.7245,1.7307,1.7387,1.7425,1.7418,1.754,1.751,1.7512,1.7517,1.7562,1.7571,1.7579,1.7476,1.7475,1.7475,0,0,1.6826,1.6866,1.6923,1.6964,1.7024,1.7054,1.7067,1.7131,1.7154,1.723,1.7245,1.7297,1.7398,1.7441,1.7476,1.7551,1.756,1.7569,1.7595,1.7639,1.7646,1.7653,1.7679,1.7688,1.7576,1.7576,1.7576,0,1.684,1.6923,1.6952,1.7011,1.7047,1.7064,1.7123,1.7162,1.7239,1.7264,1.7255,1.7382,1.7425,1.7515,1.7533,1.7561,1.7579,1.7561,1.7642,1.765,1.7656,1.7682,1.7691,1.7577,1.7577,1.7577,1.7577,0,1.6937,1.6994,1.7034,1.7105,1.7146,1.7205,1.7245,1.7283,1.7298,1.7329,1.7407,1.7459,1.7527,1.755,1.7567,1.7643,1.7637,1.7635,1.7618,1.7665,1.769,1.77,1.7578,1.7577,1.7577,1.7577,0,0,1.6996,1.7082,1.7096,1.7128,1.7196,1.7242,1.7302,1.7366,1.7398,1.7452,1.7503,1.7588,1.7586,1.7626,1.7648,1.7687,1.7742,1.768,1.7682,1.7689,1.7828,1.7829,1.7839,1.7748,1.775,1.7752,1.7823,0,1.7063,1.7167,1.7195,1.7285,1.7338,1.7355,1.7407,1.7455,1.7486,1.7537,1.7572,1.7631,1.7624,1.7648,1.7688,1.7726,1.777,1.7722,1.7797,1.78,1.778,1.7852,1.7854,1.7918,1.7833,1.7834,1.7836,0,1.7154,1.7206,1.73,1.736,1.7384,1.743,1.7491,1.7539,1.7594,1.7614,1.7658,1.7676,1.774,1.772,1.7809,1.7776,1.7809,1.7833,1.7836,1.7844,1.782,1.7862,1.794,1.7949,1.7851,1.785,1.7849,0,1.7187,1.7281,1.7349,1.7376,1.7448,1.748,1.7512,1.7565,1.7602,1.7656,1.7681,1.7743,1.7777,1.7825,1.786,1.7842,1.7946,1.7929,1.7965,1.7964,1.7986,1.7984,1.8069,1.8008,1.8008,1.8008,1.8007,0,1.7258,1.7314,1.7364,1.7406,1.747,1.7503,1.7566,1.7599,1.7646,1.7695,1.7715,1.7762,1.7805,1.7857,1.7885,1.7955,1.7971,1.7989,1.7996,1.7987,1.7984,1.8008,1.8005,1.801,1.801,1.8009,1.8009,0,1.7305,1.734,1.7416,1.7477,1.7493,1.7538,1.7591,1.7633,1.7664,1.7727,1.7743,1.7793,1.7856,1.7895,1.7976,1.7995,1.8071,1.8077,1.8051,1.8054,1.8088,1.8084,1.8191,1.8207,1.8135,1.8136,1.8137,0,1.7347,1.7391,1.7456,1.7489,1.7521,1.7575,1.7612,1.7646,1.7684,1.775,1.7784,1.7848,1.79,1.8001,1.8045,1.8107,1.8114,1.8147,1.8123,1.8113,1.8113,1.811,1.8114,1.8151,1.8151,1.8152,1.8152,0,1.7419,1.7434,1.7485,1.7543,1.7586,1.7634,1.7682,1.7709,1.7751,1.7793,1.7857,1.7897,1.7978,1.8042,1.8107,1.8142,1.8155,1.8159,1.8171,1.8162,1.8145,1.8154,1.8061,1.8157,1.8156,1.8156,1.8156,1.8155,1.7465,1.7504,1.7555,1.7612,1.7651,1.7695,1.7737,1.7772,1.7825,1.7892,1.791,1.7976,1.803,1.8119,1.8155,1.8209,1.8204,1.8221,1.8225,1.8229,1.8229,1.8137,1.8221,1.8221,1.8221,1.8221,1.8221,0,1.7537,1.757,1.7622,1.7687,1.7732,1.7737,1.7791,1.7828,1.7885,1.7934,1.7985,1.8057,1.8119,1.8167,1.8231,1.8264,1.8271,1.828,1.8277,1.8285,1.823,1.8213,1.8272,1.8272,1.8272,1.8272,1.8272,1.8272,1.7579,1.7645,1.7666,1.7752,1.7786,1.7849,1.7879,1.792,1.7959,1.8038,1.8088,1.8119,1.8168,1.8235,1.8291,1.8304,1.8327,1.8334,1.8348,1.8295,1.8289,1.8284,1.8268,1.8338,1.8338,1.8399,1.8399,1.84]},{"header":{"parameterUnit":"m.s-1","parameterCategory":1,"la1":30.2991,"la2":30.254,"lo1":-89.0895,"lo2":-89.0444,"dy":0.0017,"dx":0.0017,"nx":28,"ny":28,"refTime":"2024-06-30T03:00:00:Z","depth":0,"parameterNumber":3,"parameterNumberName":"V-component_of_WINDS"},"data":[0,0,0,0,0,0,0,0,0,0,0,0,0,0,0,0,0,0,0,0,0,0,0,0,0,0,0,0,0,0,0,0,0,0,0,0,0,0,0,0,0,0,0,0,0,0,0,0,0,0,0,0,0,0,0,0,0,0,3.064,3.0641,0,3.0681,3.0682,3.0682,3.0651,3.065,3.0648,3.0647,3.0686,3.0688,3.069,0,0,0,0,0,0,0,0,0,0,0,0,0,3.0531,3.0533,3.064,3.0641,3.0641,3.0681,3.0682,3.0682,3.0651,3.065,3.0648,3.0646,3.0685,3.0688,3.0691,0,0,0,0,0,0,0,0,0,0,0,0,0,3.0576,3.0534,3.064,3.0631,3.063,3.0681,3.0682,3.0682,3.0652,3.065,3.0648,3.0646,3.0684,3.0688,3.0691,3.0752,0,0,3.0701,3.0703,0,0,0,0,0,0,0,0,3.0573,3.058,3.0632,3.0631,3.0631,3.0659,3.0657,3.0706,3.0652,3.0643,3.0647,3.0645,3.0678,3.0682,3.0694,3.0754,3.0756,3.0702,3.0704,3.0705,3.0706,0,0,0,0,0,0,0,3.057,3.0578,3.0656,3.0632,3.0632,3.0623,3.0627,3.0666,3.0672,3.0644,3.0642,3.0647,3.0678,3.0691,3.0695,3.0756,3.0702,3.0705,3.0707,3.0708,3.0867,3.0869,0,0,0,0,0,0,3.0568,3.0575,3.0655,3.0658,3.0597,3.0627,3.0631,3.0652,3.0671,3.0672,3.0649,3.0646,3.0686,3.0691,3.0696,3.0768,3.0705,3.0708,3.071,3.0865,3.0868,3.087,0,0,0,0,0,0,3.0566,3.0576,3.0653,3.0616,3.0625,3.0631,3.0654,3.0654,3.0667,3.0675,3.0675,3.0662,3.0685,3.0691,3.0738,3.0769,3.071,3.0713,3.0862,3.0866,3.0869,3.0914,0,0,0,0,0,0,3.0563,3.0575,3.06,3.0617,3.0627,3.0697,3.0656,3.0656,3.0673,3.067,3.0687,3.0688,3.0684,3.0734,3.0742,3.0773,3.0716,3.086,3.0864,3.0868,3.091,3.0918,3.0926,0,0,0,0,0,3.0559,3.061,3.0601,3.0611,3.0658,3.0698,3.0704,3.0699,3.0676,3.07,3.0705,3.0687,3.0765,3.0739,3.0748,3.078,3.0858,3.0863,3.0868,3.0906,3.0917,3.0926,0,0,0,0,0,0,3.0596,3.0613,3.0602,3.0661,3.0679,3.0693,3.0723,3.0711,3.0735,3.073,3.0721,3.0726,3.0775,3.0782,3.0753,3.084,3.0807,3.0814,3.0834,3.0844,3.0852,3.0849,3.0719,0,0,0,0,0,3.0611,3.0644,3.0656,3.0706,3.0715,3.0718,3.0735,3.073,3.0747,3.0754,3.0763,3.0779,3.0807,3.0826,3.0852,3.0911,3.0913,3.0937,3.0945,3.0952,3.0958,3.0988,3.0999,3.0886,3.0886,3.0886,0,0,3.0642,3.0655,3.0676,3.0713,3.0727,3.0759,3.0724,3.076,3.0784,3.0759,3.0805,3.0811,3.0829,3.0882,3.0906,3.089,3.099,3.0958,3.0963,3.0966,3.0994,3.1005,3.1014,3.0889,3.0889,3.0888,0,0,3.0715,3.0729,3.0772,3.0785,3.0806,3.0807,3.0817,3.0834,3.0837,3.0883,3.0865,3.0892,3.0941,3.0954,3.0967,3.1044,3.1029,3.1053,3.1094,3.1124,3.1133,3.1141,3.1167,3.1177,3.1059,3.1059,3.1059,0,3.0751,3.08,3.0795,3.0832,3.0849,3.0829,3.0871,3.0884,3.0912,3.0923,3.0905,3.0965,3.0976,3.1031,3.105,3.1061,3.1071,3.1051,3.1132,3.114,3.1147,3.1173,3.1183,3.1062,3.1061,3.1061,3.1061,0,3.0843,3.0877,3.0909,3.0937,3.0957,3.0997,3.0996,3.1016,3.1009,3.1011,3.1057,3.1069,3.1097,3.111,3.1103,3.1164,3.1153,3.1134,3.1101,3.1161,3.1184,3.1194,3.1066,3.1065,3.1064,3.1063,0,0,3.094,3.0965,3.0976,3.0988,3.1009,3.1035,3.1073,3.1101,3.1118,3.1137,3.1168,3.1209,3.1192,3.1206,3.12,3.1227,3.1285,3.1204,3.1204,3.1218,3.1352,3.1366,3.1378,3.1275,3.1277,3.1279,3.135,0,3.1014,3.1082,3.1077,3.114,3.1171,3.1152,3.1185,3.12,3.1203,3.1229,3.1232,3.1261,3.1236,3.1244,3.1269,3.1273,3.1312,3.1268,3.1303,3.1304,3.1299,3.139,3.1406,3.1473,3.136,3.1361,3.1362,0,3.1109,3.1133,3.1199,3.1214,3.1227,3.1257,3.1281,3.1307,3.1323,3.1323,3.134,3.1329,3.1366,3.1332,3.1382,3.1352,3.1365,3.1369,3.1372,3.1374,3.1337,3.1395,3.1494,3.1504,3.1377,3.1376,3.1375,0,3.1173,3.1221,3.1267,3.1277,3.1296,3.1318,3.1326,3.1341,3.1358,3.1379,3.1389,3.1414,3.1428,3.1446,3.1442,3.1418,3.1493,3.1459,3.1493,3.1493,3.1509,3.1508,3.1612,3.1519,3.1519,3.1519,3.1519,0,3.1256,3.1297,3.1295,3.1324,3.1368,3.1362,3.1406,3.1412,3.1425,3.1453,3.1438,3.1464,3.1457,3.1482,3.1479,3.152,3.1526,3.1526,3.1525,3.1528,3.1528,3.1537,3.1532,3.1521,3.1521,3.152,3.152,0,3.1335,3.1336,3.1384,3.1398,3.1402,3.1435,3.1446,3.1472,3.1473,3.1508,3.1516,3.1518,3.1547,3.1545,3.1577,3.1575,3.1626,3.1619,3.1621,3.1619,3.1653,3.165,3.1766,3.178,3.1678,3.1679,3.168,0,3.1387,3.1419,3.1436,3.1454,3.1464,3.1493,3.151,3.1505,3.1523,3.1543,3.1566,3.1594,3.1616,3.1663,3.1667,3.1691,3.1684,3.1723,3.1688,3.1689,3.1684,3.1682,3.1685,3.173,3.1731,3.1732,3.1733,0,3.148,3.1479,3.1505,3.1531,3.1552,3.1572,3.159,3.1605,3.1601,3.1622,3.1652,3.1669,3.1702,3.1729,3.1752,3.1759,3.1745,3.1744,3.1753,3.1756,3.1756,3.1756,3.1639,3.1741,3.174,3.174,3.1739,3.1739,3.1547,3.1574,3.159,3.1619,3.1632,3.1649,3.1674,3.1678,3.1703,3.1731,3.1725,3.1759,3.1773,3.1802,3.1812,3.1837,3.1823,3.1836,3.1839,3.1843,3.1846,3.1752,3.1841,3.1841,3.1841,3.184,3.184,0,3.1639,3.1648,3.1675,3.1701,3.1723,3.1709,3.1728,3.1747,3.1777,3.1792,3.1814,3.1847,3.1873,3.1879,3.1903,3.1922,3.1916,3.1929,3.1927,3.1929,3.1858,3.1847,3.1933,3.1933,3.1933,3.1933,3.1933,3.1933,3.1689,3.1733,3.1734,3.1783,3.1792,3.1825,3.1837,3.1852,3.1863,3.1902,3.1924,3.1928,3.1938,3.1963,3.1986,3.1987,3.1997,3.2012,3.201,3.1943,3.1934,3.1925,3.1915,3.2014,3.2014,3.2079,3.2079,3.208]}]]